User: anonymous   Login
Location: Oshawa
(43.9000°N, 78.8670°W)
Time: 23:38:05
(UTC-04:00)
Language:

Altair - Orbit

View from above orbital plane
View from above orbital plane
View from above satellite
View from above satellite

Ground track
Ground track

The orbit data is extracted from the following two-line orbital elements,

1 00050U 60009B   16268.80676284 -.00000029  00000-0  52190-3 0  9996
2 00050  47.2336  27.3217 0113982 227.4971 131.6143 12.20097357504420
Epoch (UTC): 24 September 2016 19:21:44
Eccentricity: 0.0113982
inclination: 47.2336°
perigee height: 1501 km
apogee height: 1683 km
right ascension of ascending node: 27.3217°
argument of perigee: 227.4971°
revolutions per day: 12.20097357
mean anomaly at epoch: 131.6143°
orbit number at epoch: 50442

The dashed part of the orbit path shows where the satellite is in the earth's shadow,  

DLR